Location: Kapuskasing
(49.3803°N, 82.4001°W)
Time: 10:53:58
(UTC-05:00)

ISS - Visible Passes

Search period start: 19 February 2018 00:00
Search period end: 01 March 2018 00:00
Orbit: 403 x 407 km, 51.6° (Epoch: 20 February)

Date Brightness Start Highest point End Pass type
(mag) Time Alt. Az. Time Alt. Az. Time Alt. Az.
26 Feb -1.0 06:35:22 10° S 06:37:34 17° SE 06:39:47 10° E visible
27 Feb -0.6 05:45:09 10° SE 05:45:33 10° SE 05:45:56 10° SE visible
28 Feb -2.1 06:26:15 10° SSW 06:29:12 31° SSE 06:32:10 10° E visible
